N89EU BIKF-EKRK

Flight info

Callsign N89EU
Flight time 3h 43m
Altitude 35000
Route OSKUM3C OSKUM DCT TNO DCT NUSMO
Aircraft STAR/L-SDFGRWY/S

Departure

Time 2026-04-27 11:10
Airport Keflavik International Airport (BIKF)

Arrival

Time 2026-04-27 14:54
Airport Copenhagen Roskilde Airport (EKRK)
Time Latitude Longitude Altitude Speed Heading
2026-04-27 10:25 63.97413 -22.59068 139 ft 0 kts 113°
2026-04-27 10:57 63.97405 -22.59058 139 ft 2 kts 179°
2026-04-27 10:57 63.97398 -22.59073 139 ft 4 kts 257°
2026-04-27 10:57 63.97419 -22.59084 139 ft 1 kts 22°
2026-04-27 10:58 63.97436 -22.59139 139 ft 5 kts 287°
2026-04-27 10:58 63.97447 -22.59217 140 ft 7 kts 287°
2026-04-27 10:58 63.97472 -22.59269 140 ft 7 kts 22°
2026-04-27 10:58 63.97544 -22.59201 140 ft 7 kts 22°
2026-04-27 10:59 63.97584 -22.59164 140 ft 6 kts 22°
2026-04-27 10:59 63.97615 -22.59134 140 ft 4 kts 22°
2026-04-27 10:59 63.97661 -22.59092 139 ft 5 kts 22°
2026-04-27 11:00 63.97714 -22.59047 139 ft 4 kts 18°
2026-04-27 11:00 63.97734 -22.59032 139 ft 10 kts 18°
2026-04-27 11:00 63.97762 -22.59013 139 ft 0 kts 18°
2026-04-27 11:03 63.97768 -22.59008 139 ft 8 kts 18°
2026-04-27 11:03 63.97834 -22.58953 139 ft 6 kts 21°
2026-04-27 11:03 63.97880 -22.58914 139 ft 14 kts 21°
2026-04-27 11:03 63.97972 -22.58845 138 ft 13 kts 13°
2026-04-27 11:04 63.98043 -22.58873 138 ft 14 kts 337°
2026-04-27 11:04 63.98121 -22.58947 137 ft 10 kts 338°
2026-04-27 11:04 63.98184 -22.59007 137 ft 6 kts 336°
2026-04-27 11:04 63.98228 -22.59050 136 ft 12 kts 338°
2026-04-27 11:05 63.98300 -22.59116 136 ft 11 kts 338°
2026-04-27 11:05 63.98399 -22.59210 135 ft 18 kts 338°
2026-04-27 11:05 63.98523 -22.59297 135 ft 18 kts 359°
2026-04-27 11:05 63.98664 -22.59299 137 ft 20 kts 359°
2026-04-27 11:06 63.98781 -22.59331 140 ft 16 kts 342°
2026-04-27 11:06 63.98900 -22.59422 145 ft 17 kts 321°
2026-04-27 11:06 63.98986 -22.59616 150 ft 15 kts 313°
2026-04-27 11:06 63.99062 -22.59798 155 ft 20 kts 314°
2026-04-27 11:07 63.99140 -22.59974 159 ft 2 kts 314°
2026-04-27 11:07 63.99173 -22.60160 161 ft 21 kts 269°
2026-04-27 11:07 63.99172 -22.60313 162 ft 0 kts 269°
2026-04-27 11:08 63.99171 -22.60332 162 ft 8 kts 269°
2026-04-27 11:08 63.99170 -22.60474 163 ft 9 kts 269°
2026-04-27 11:08 63.99159 -22.60548 163 ft 2 kts 186°
2026-04-27 11:09 63.99148 -22.60547 163 ft 0 kts 178°
2026-04-27 11:09 63.99111 -22.60546 162 ft 26 kts 179°
2026-04-27 11:10 63.98768 -22.60541 150 ft 68 kts 180°
2026-04-27 11:10 63.98195 -22.60539 148 ft 99 kts 178°
2026-04-27 11:10 63.97426 -22.60510 310 ft 117 kts 175°
2026-04-27 11:10 63.96588 -22.60406 800 ft 122 kts 173°
2026-04-27 11:11 63.95757 -22.60123 1515 ft 120 kts 157°
2026-04-27 11:11 63.95320 -22.58398 2050 ft 151 kts 102°
2026-04-27 11:11 63.95326 -22.56031 2819 ft 152 kts 99°
2026-04-27 11:11 63.95355 -22.53562 3455 ft 161 kts 97°
2026-04-27 11:12 63.95418 -22.50901 3974 ft 176 kts 94°
2026-04-27 11:12 63.95504 -22.48040 4508 ft 188 kts 94°
2026-04-27 11:12 63.95624 -22.45000 5034 ft 196 kts 93°
2026-04-27 11:12 63.95755 -22.41859 5567 ft 202 kts 94°
2026-04-27 11:13 63.95886 -22.38628 6113 ft 209 kts 95°
2026-04-27 11:13 63.96019 -22.35286 6612 ft 213 kts 95°
2026-04-27 11:13 63.96018 -22.31946 7123 ft 206 kts 114°
2026-04-27 11:13 63.95529 -22.29024 7611 ft 200 kts 127°
2026-04-27 11:14 63.94933 -22.26138 8126 ft 203 kts 128°
2026-04-27 11:14 63.94334 -22.23198 8725 ft 207 kts 127°
2026-04-27 11:14 63.93757 -22.20140 9396 ft 214 kts 125°
2026-04-27 11:14 63.93200 -22.16946 10028 ft 220 kts 124°
2026-04-27 11:15 63.92650 -22.13673 10642 ft 223 kts 123°
2026-04-27 11:15 63.92121 -22.10316 11170 ft 228 kts 119°
2026-04-27 11:15 63.91737 -22.06811 11862 ft 227 kts 115°
2026-04-27 11:15 63.91350 -22.03427 12548 ft 221 kts 119°
2026-04-27 11:16 63.90924 -22.00090 13264 ft 219 kts 119°
2026-04-27 11:16 63.90529 -21.96778 13953 ft 216 kts 118°
2026-04-27 11:16 63.90136 -21.93467 14530 ft 218 kts 119°
2026-04-27 11:16 63.89728 -21.90141 15109 ft 220 kts 120°
2026-04-27 11:17 63.89318 -21.86777 15682 ft 223 kts 119°
2026-04-27 11:17 63.88909 -21.83374 16267 ft 224 kts 119°
2026-04-27 11:17 63.88494 -21.79956 16858 ft 225 kts 120°
2026-04-27 11:17 63.88074 -21.76531 17449 ft 226 kts 120°
2026-04-27 11:18 63.87655 -21.73114 18043 ft 229 kts 119°
2026-04-27 11:18 63.87229 -21.69624 18585 ft 230 kts 119°
2026-04-27 11:18 63.86800 -21.66119 19109 ft 231 kts 119°
2026-04-27 11:18 63.86358 -21.62569 19520 ft 239 kts 119°
2026-04-27 11:19 63.85889 -21.58811 19718 ft 257 kts 118°
2026-04-27 11:19 63.85398 -21.54777 19814 ft 274 kts 117°
2026-04-27 11:19 63.84871 -21.50517 19835 ft 287 kts 116°
2026-04-27 11:19 63.84329 -21.46130 20185 ft 283 kts 116°
2026-04-27 11:20 63.83819 -21.41963 20942 ft 266 kts 117°
2026-04-27 11:20 63.83327 -21.38106 21704 ft 251 kts 118°
2026-04-27 11:20 63.82862 -21.34398 22507 ft 238 kts 118°
2026-04-27 11:20 63.82425 -21.30904 23306 ft 227 kts 120°
2026-04-27 11:21 63.81985 -21.27491 23803 ft 226 kts 120°
2026-04-27 11:21 63.81551 -21.24057 24224 ft 228 kts 120°
2026-04-27 11:21 63.81119 -21.20591 24649 ft 229 kts 120°
2026-04-27 11:21 63.80679 -21.17117 25088 ft 230 kts 121°
2026-04-27 11:22 63.80233 -21.13628 25510 ft 231 kts 121°
2026-04-27 11:22 63.79793 -21.10165 25923 ft 233 kts 121°
2026-04-27 11:22 63.79344 -21.06629 26341 ft 234 kts 121°
2026-04-27 11:22 63.78883 -21.03053 26710 ft 239 kts 121°
2026-04-27 11:23 63.78417 -20.99408 27092 ft 243 kts 121°
2026-04-27 11:23 63.77944 -20.95705 27483 ft 247 kts 121°
2026-04-27 11:23 63.77459 -20.91956 27846 ft 250 kts 120°
2026-04-27 11:23 63.76972 -20.88180 28269 ft 251 kts 120°
2026-04-27 11:24 63.76487 -20.84390 28708 ft 251 kts 120°
2026-04-27 11:24 63.75995 -20.80616 29152 ft 250 kts 120°
2026-04-27 11:24 63.75502 -20.76837 29576 ft 251 kts 120°
2026-04-27 11:24 63.75010 -20.73055 29980 ft 252 kts 120°
2026-04-27 11:25 63.74520 -20.69308 30325 ft 253 kts 121°
2026-04-27 11:25 63.74021 -20.65490 30678 ft 253 kts 121°
2026-04-27 11:25 63.73524 -20.61690 31049 ft 252 kts 121°
2026-04-27 11:25 63.73028 -20.57923 31423 ft 250 kts 121°
2026-04-27 11:26 63.72534 -20.54180 31809 ft 247 kts 121°
2026-04-27 11:26 63.72045 -20.50482 32194 ft 244 kts 121°
2026-04-27 11:26 63.71564 -20.46834 32586 ft 240 kts 122°
2026-04-27 11:26 63.71109 -20.43174 32871 ft 247 kts 116°
2026-04-27 11:27 63.70829 -20.39328 33136 ft 255 kts 110°
2026-04-27 11:27 63.70588 -20.35353 33369 ft 256 kts 113°
2026-04-27 11:27 63.70254 -20.31386 33583 ft 260 kts 114°
2026-04-27 11:27 63.69947 -20.27329 33806 ft 265 kts 112°
2026-04-27 11:28 63.69648 -20.23209 34013 ft 267 kts 113°
2026-04-27 11:28 63.69321 -20.19075 34214 ft 269 kts 113°
2026-04-27 11:28 63.69001 -20.14887 34413 ft 272 kts 112°
2026-04-27 11:28 63.68683 -20.10673 34608 ft 273 kts 112°
2026-04-27 11:29 63.68353 -20.06446 34784 ft 276 kts 112°
2026-04-27 11:29 63.68021 -20.02200 34873 ft 282 kts 111°
2026-04-27 11:29 63.67681 -19.97787 34915 ft 290 kts 111°
2026-04-27 11:29 63.67327 -19.93259 34939 ft 297 kts 111°
2026-04-27 11:30 63.66591 -19.83868 34969 ft 311 kts 110°
2026-04-27 11:30 63.65819 -19.74144 34980 ft 320 kts 110°
2026-04-27 11:31 63.65019 -19.64168 34962 ft 327 kts 109°
2026-04-27 11:31 63.64213 -19.54097 34965 ft 331 kts 108°
2026-04-27 11:32 63.63376 -19.43883 35004 ft 333 kts 108°
2026-04-27 11:32 63.62529 -19.33604 35008 ft 336 kts 108°
2026-04-27 11:33 63.61672 -19.23266 35008 ft 337 kts 108°
2026-04-27 11:33 63.60810 -19.12966 35017 ft 338 kts 108°
2026-04-27 11:34 63.59933 -19.02600 35018 ft 337 kts 108°
2026-04-27 11:34 63.59051 -18.92265 35018 ft 336 kts 109°
2026-04-27 11:35 63.58162 -18.81946 35018 ft 336 kts 109°
2026-04-27 11:35 63.57264 -18.71640 35016 ft 336 kts 108°
2026-04-27 11:36 63.56370 -18.61413 35024 ft 336 kts 108°
2026-04-27 11:36 63.55462 -18.51124 35026 ft 336 kts 108°
2026-04-27 11:37 63.54542 -18.40817 35042 ft 337 kts 108°
2026-04-27 11:37 63.53614 -18.30502 35043 ft 338 kts 108°
2026-04-27 11:38 63.52681 -18.20219 35042 ft 339 kts 108°
2026-04-27 11:38 63.51733 -18.09861 35043 ft 340 kts 108°
2026-04-27 11:39 63.50774 -17.99464 35053 ft 341 kts 108°
2026-04-27 11:39 63.49804 -17.89047 35054 ft 343 kts 108°
2026-04-27 11:40 63.48828 -17.78649 35056 ft 345 kts 108°
2026-04-27 11:40 63.47828 -17.68099 35065 ft 349 kts 108°
2026-04-27 11:41 63.46813 -17.57442 35063 ft 351 kts 108°
2026-04-27 11:41 63.45785 -17.46763 35064 ft 353 kts 108°
2026-04-27 11:42 63.44738 -17.36013 35074 ft 356 kts 108°
2026-04-27 11:42 63.43686 -17.25251 35073 ft 358 kts 108°
2026-04-27 11:43 63.42623 -17.14484 35073 ft 352 kts 109°
2026-04-27 11:43 63.41566 -17.03869 35073 ft 348 kts 109°
2026-04-27 11:44 63.40514 -16.93361 35084 ft 346 kts 108°
2026-04-27 11:44 63.39459 -16.82971 35084 ft 346 kts 108°
2026-04-27 11:45 63.38568 -16.74218 35080 ft 345 kts 108°
2026-04-27 11:45 63.37327 -16.62140 35093 ft 343 kts 108°
2026-04-27 11:46 63.36255 -16.51797 35098 ft 342 kts 108°
2026-04-27 11:46 63.35177 -16.41462 35099 ft 342 kts 108°
2026-04-27 11:47 63.34099 -16.31213 35107 ft 342 kts 108°
2026-04-27 11:47 63.33005 -16.20896 35107 ft 342 kts 108°
2026-04-27 11:48 63.31904 -16.10589 35113 ft 342 kts 108°
2026-04-27 11:48 63.30796 -16.00293 35118 ft 342 kts 109°
2026-04-27 11:49 63.29687 -15.90062 35118 ft 343 kts 109°
2026-04-27 11:49 63.28562 -15.79761 35120 ft 343 kts 109°
2026-04-27 11:50 63.27423 -15.69411 35118 ft 346 kts 109°
2026-04-27 11:50 63.26270 -15.59002 35118 ft 348 kts 109°
2026-04-27 11:51 63.25105 -15.48564 35126 ft 348 kts 109°
2026-04-27 11:52 63.23354 -15.33033 35126 ft 346 kts 109°
2026-04-27 11:52 63.22179 -15.22681 35121 ft 346 kts 108°
2026-04-27 11:53 63.20997 -15.12371 35132 ft 345 kts 108°
2026-04-27 11:53 63.19818 -15.02150 35134 ft 344 kts 108°
2026-04-27 11:54 63.18626 -14.91879 35144 ft 344 kts 108°
2026-04-27 11:54 63.17427 -14.81635 35147 ft 344 kts 108°
2026-04-27 11:55 63.16221 -14.71393 35145 ft 344 kts 108°
2026-04-27 11:55 63.15007 -14.61152 35151 ft 344 kts 108°
2026-04-27 11:56 63.13793 -14.50993 35150 ft 344 kts 108°
2026-04-27 11:56 63.12562 -14.40770 35160 ft 345 kts 107°
2026-04-27 11:57 63.11326 -14.30547 35167 ft 345 kts 108°
2026-04-27 11:57 63.10079 -14.20309 35167 ft 345 kts 108°
2026-04-27 11:58 63.08833 -14.10152 35167 ft 345 kts 108°
2026-04-27 11:58 63.07569 -13.99924 35167 ft 345 kts 108°
2026-04-27 11:59 63.06300 -13.89715 35176 ft 346 kts 108°
2026-04-27 11:59 63.05020 -13.79486 35174 ft 347 kts 108°
2026-04-27 12:00 63.03730 -13.69264 35180 ft 350 kts 108°
2026-04-27 12:00 63.02417 -13.58940 35194 ft 349 kts 107°
2026-04-27 12:01 63.01106 -13.48637 35193 ft 350 kts 107°
2026-04-27 12:01 62.99785 -13.38354 35192 ft 349 kts 107°
2026-04-27 12:02 62.98466 -13.28163 35205 ft 348 kts 107°
2026-04-27 12:02 62.97133 -13.17928 35205 ft 348 kts 107°
2026-04-27 12:03 62.95794 -13.07711 35204 ft 348 kts 107°
2026-04-27 12:03 62.94450 -12.97519 35205 ft 347 kts 107°
2026-04-27 12:04 62.93099 -12.87342 35213 ft 347 kts 107°
2026-04-27 12:04 62.91746 -12.77239 35223 ft 347 kts 107°
2026-04-27 12:05 62.90379 -12.67033 35218 ft 350 kts 107°
2026-04-27 12:05 62.88993 -12.56787 35222 ft 351 kts 107°
2026-04-27 12:06 62.87594 -12.46532 35207 ft 351 kts 106°
2026-04-27 12:06 62.86206 -12.36381 35219 ft 349 kts 106°
2026-04-27 12:07 62.84804 -12.26217 35227 ft 348 kts 106°
2026-04-27 12:07 62.83397 -12.16073 35239 ft 348 kts 106°
2026-04-27 12:08 62.81986 -12.05959 35237 ft 347 kts 106°
2026-04-27 12:08 62.80578 -11.95935 35256 ft 348 kts 106°
2026-04-27 12:09 62.79152 -11.85820 35243 ft 349 kts 106°
2026-04-27 12:09 62.77713 -11.75698 35241 ft 349 kts 106°
2026-04-27 12:10 62.76264 -11.65571 35253 ft 350 kts 106°
2026-04-27 12:10 62.74817 -11.55507 35254 ft 350 kts 106°
2026-04-27 12:11 62.73353 -11.45383 35259 ft 350 kts 106°
2026-04-27 12:11 62.71880 -11.35265 35257 ft 350 kts 106°
2026-04-27 12:12 62.70400 -11.25151 35261 ft 350 kts 107°
2026-04-27 12:12 62.68922 -11.15123 35276 ft 350 kts 106°
2026-04-27 12:13 62.67432 -11.05036 35263 ft 350 kts 105°
2026-04-27 12:13 62.65930 -10.94978 35269 ft 349 kts 105°
2026-04-27 12:14 62.64425 -10.84936 35274 ft 349 kts 105°
2026-04-27 12:14 62.62925 -10.74977 35273 ft 349 kts 106°
2026-04-27 12:15 62.61405 -10.64953 35275 ft 349 kts 106°
2026-04-27 12:15 62.59880 -10.54948 35281 ft 349 kts 106°
2026-04-27 12:16 62.58345 -10.44940 35281 ft 349 kts 106°
2026-04-27 12:16 62.56815 -10.35017 35300 ft 349 kts 106°
2026-04-27 12:17 62.55267 -10.25018 35288 ft 350 kts 105°
2026-04-27 12:17 62.53704 -10.15011 35285 ft 350 kts 105°
2026-04-27 12:18 62.52137 -10.05020 35290 ft 351 kts 106°
2026-04-27 12:18 62.50573 -9.95097 35295 ft 351 kts 106°
2026-04-27 12:19 62.48991 -9.85121 35295 ft 351 kts 106°
2026-04-27 12:19 62.47399 -9.75153 35285 ft 350 kts 105°
2026-04-27 12:20 62.45809 -9.65223 35306 ft 349 kts 106°
2026-04-27 12:20 62.44212 -9.55317 35315 ft 349 kts 105°
2026-04-27 12:21 62.42621 -9.45487 35304 ft 349 kts 105°
2026-04-27 12:21 62.41007 -9.35598 35304 ft 349 kts 105°
2026-04-27 12:22 62.39392 -9.25743 35301 ft 349 kts 105°
2026-04-27 12:22 62.37769 -9.15894 35303 ft 348 kts 105°
2026-04-27 12:23 62.36151 -9.06123 35306 ft 348 kts 105°
2026-04-27 12:23 62.34516 -8.96304 35311 ft 348 kts 105°
2026-04-27 12:24 62.32876 -8.86505 35311 ft 348 kts 105°
2026-04-27 12:24 62.31225 -8.76700 35330 ft 348 kts 105°
2026-04-27 12:25 62.29583 -8.66976 35318 ft 348 kts 104°
2026-04-27 12:25 62.27922 -8.57225 35315 ft 348 kts 104°
2026-04-27 12:26 62.26255 -8.47476 35307 ft 347 kts 104°
2026-04-27 12:26 62.24590 -8.37778 35320 ft 346 kts 104°
2026-04-27 12:27 62.22930 -8.28170 35320 ft 346 kts 104°
2026-04-27 12:27 62.21255 -8.18525 35322 ft 345 kts 105°
2026-04-27 12:28 62.19574 -8.08891 35322 ft 345 kts 105°
2026-04-27 12:28 62.17887 -7.99269 35322 ft 345 kts 105°
2026-04-27 12:29 62.16193 -7.89661 35326 ft 345 kts 105°
2026-04-27 12:29 62.14506 -7.80137 35325 ft 345 kts 105°
2026-04-27 12:30 62.12801 -7.70559 35327 ft 345 kts 105°
2026-04-27 12:30 62.11094 -7.60988 35328 ft 345 kts 105°
2026-04-27 12:31 62.09133 -7.51580 35329 ft 347 kts 109°
2026-04-27 12:31 62.07167 -7.42253 35347 ft 347 kts 110°
2026-04-27 12:32 62.05167 -7.32874 35345 ft 348 kts 110°
2026-04-27 12:32 62.03152 -7.23527 35343 ft 347 kts 109°
2026-04-27 12:33 62.01131 -7.14180 35349 ft 348 kts 108°
2026-04-27 12:33 61.99111 -7.04891 35345 ft 348 kts 108°
2026-04-27 12:34 61.97075 -6.95552 35342 ft 348 kts 109°
2026-04-27 12:34 61.95036 -6.86243 35341 ft 347 kts 109°
2026-04-27 12:35 61.92993 -6.76959 35338 ft 346 kts 109°
2026-04-27 12:35 61.90963 -6.67779 35337 ft 346 kts 109°
2026-04-27 12:36 61.88917 -6.58560 35338 ft 345 kts 109°
2026-04-27 12:36 61.86867 -6.49367 35339 ft 345 kts 109°
2026-04-27 12:37 61.84808 -6.40189 35359 ft 345 kts 108°
2026-04-27 12:37 61.82763 -6.31071 35345 ft 345 kts 108°
2026-04-27 12:38 61.80694 -6.21915 35344 ft 345 kts 108°
2026-04-27 12:38 61.78622 -6.12782 35341 ft 344 kts 108°
2026-04-27 12:39 61.76550 -6.03682 35339 ft 343 kts 108°
2026-04-27 12:39 61.74487 -5.94671 35345 ft 343 kts 108°
2026-04-27 12:40 61.72409 -5.85621 35346 ft 343 kts 108°
2026-04-27 12:40 61.70327 -5.76597 35346 ft 342 kts 108°
2026-04-27 12:41 61.68238 -5.67583 35383 ft 342 kts 108°
2026-04-27 12:41 61.66158 -5.58632 35354 ft 342 kts 107°
2026-04-27 12:42 61.64057 -5.49646 35347 ft 342 kts 107°
2026-04-27 12:42 61.61955 -5.40689 35346 ft 341 kts 108°
2026-04-27 12:43 61.59851 -5.31754 35346 ft 341 kts 108°
2026-04-27 12:43 61.57757 -5.22898 35352 ft 341 kts 108°
2026-04-27 12:44 61.55644 -5.14002 35352 ft 341 kts 108°
2026-04-27 12:44 61.53525 -5.05117 35352 ft 341 kts 108°
2026-04-27 12:45 61.51402 -4.96249 35352 ft 340 kts 108°
2026-04-27 12:45 61.49284 -4.87452 35366 ft 341 kts 107°
2026-04-27 12:46 61.47150 -4.78603 35357 ft 340 kts 107°
2026-04-27 12:46 61.45013 -4.69781 35353 ft 340 kts 107°
2026-04-27 12:47 61.42871 -4.60982 35353 ft 339 kts 107°
2026-04-27 12:47 61.40727 -4.52207 35350 ft 339 kts 108°
2026-04-27 12:48 61.38593 -4.43505 35356 ft 339 kts 108°
2026-04-27 12:48 61.36440 -4.34765 35353 ft 339 kts 108°
2026-04-27 12:49 61.34281 -4.26034 35356 ft 339 kts 108°
2026-04-27 12:49 61.32116 -4.17315 35376 ft 339 kts 107°
2026-04-27 12:50 61.29965 -4.08673 35364 ft 338 kts 107°
2026-04-27 12:50 61.27793 -4.00000 35359 ft 337 kts 107°
2026-04-27 12:51 61.25626 -3.91369 35355 ft 336 kts 107°
2026-04-27 12:51 61.23459 -3.82782 35357 ft 335 kts 107°
2026-04-27 12:52 61.21311 -3.74293 35357 ft 334 kts 107°
2026-04-27 12:52 61.19143 -3.65760 35357 ft 334 kts 107°
2026-04-27 12:53 61.15888 -3.53012 35357 ft 333 kts 107°
2026-04-27 12:53 61.13712 -3.44531 35387 ft 333 kts 107°
2026-04-27 12:54 61.11550 -3.36143 35363 ft 332 kts 107°
2026-04-27 12:54 61.09379 -3.27740 35359 ft 330 kts 107°
2026-04-27 12:55 61.07213 -3.19391 35357 ft 329 kts 107°
2026-04-27 12:55 61.05046 -3.11073 35357 ft 328 kts 107°
2026-04-27 12:56 61.02893 -3.02838 35357 ft 328 kts 108°
2026-04-27 12:56 61.00725 -2.94575 35365 ft 328 kts 107°
2026-04-27 12:57 60.98554 -2.86328 35359 ft 327 kts 107°
2026-04-27 12:57 60.96381 -2.78110 35358 ft 326 kts 107°
2026-04-27 12:58 60.94222 -2.69965 35374 ft 327 kts 108°
2026-04-27 12:58 60.92042 -2.61784 35361 ft 326 kts 108°
2026-04-27 12:59 60.89864 -2.53638 35358 ft 325 kts 108°
2026-04-27 12:59 60.87683 -2.45505 35357 ft 325 kts 108°
2026-04-27 13:00 60.85513 -2.37442 35361 ft 325 kts 108°
2026-04-27 13:00 60.83327 -2.29350 35362 ft 324 kts 108°
2026-04-27 13:01 60.81137 -2.21271 35361 ft 324 kts 108°
2026-04-27 13:01 60.78940 -2.13198 35360 ft 324 kts 108°
2026-04-27 13:02 60.76741 -2.05145 35360 ft 324 kts 109°
2026-04-27 13:02 60.74549 -1.97157 35367 ft 324 kts 110°
2026-04-27 13:03 60.72353 -1.89150 35362 ft 322 kts 111°
2026-04-27 13:03 60.70155 -1.81191 35358 ft 321 kts 110°
2026-04-27 13:04 60.67959 -1.73265 35354 ft 320 kts 110°
2026-04-27 13:04 60.65781 -1.65429 35358 ft 319 kts 111°
2026-04-27 13:05 60.63588 -1.57564 35358 ft 319 kts 111°
2026-04-27 13:05 60.61392 -1.49716 35360 ft 319 kts 111°
2026-04-27 13:06 60.59209 -1.41939 35360 ft 319 kts 111°
2026-04-27 13:06 60.57003 -1.34110 35388 ft 319 kts 111°
2026-04-27 13:07 60.54794 -1.26311 35369 ft 318 kts 112°
2026-04-27 13:07 60.52593 -1.18542 35364 ft 317 kts 112°
2026-04-27 13:08 60.50411 -1.10873 35365 ft 316 kts 112°
2026-04-27 13:08 60.48212 -1.03177 35371 ft 315 kts 112°
2026-04-27 13:09 60.46013 -0.95504 35374 ft 314 kts 112°
2026-04-27 13:09 60.43815 -0.87860 35378 ft 314 kts 112°
2026-04-27 13:10 60.41990 -0.81532 35375 ft 313 kts 112°
2026-04-27 13:10 60.39440 -0.72718 35378 ft 312 kts 112°
2026-04-27 13:11 60.37246 -0.65163 35373 ft 311 kts 112°
2026-04-27 13:11 60.35420 -0.58895 35373 ft 311 kts 112°
2026-04-27 13:12 60.33224 -0.51382 35385 ft 311 kts 112°
2026-04-27 13:12 60.30668 -0.42664 35384 ft 310 kts 112°
2026-04-27 13:13 60.28840 -0.36448 35381 ft 310 kts 112°
2026-04-27 13:13 60.26635 -0.28975 35381 ft 310 kts 112°
2026-04-27 13:14 60.24424 -0.21504 35380 ft 311 kts 112°
2026-04-27 13:14 60.22206 -0.14036 35382 ft 311 kts 112°
2026-04-27 13:15 60.19981 -0.06568 35384 ft 311 kts 112°
2026-04-27 13:15 60.17767 0.00847 35413 ft 312 kts 113°
2026-04-27 13:16 60.15529 0.08296 35398 ft 311 kts 113°
2026-04-27 13:16 60.13297 0.15722 35395 ft 310 kts 113°
2026-04-27 13:17 60.11069 0.23105 35392 ft 309 kts 113°
2026-04-27 13:17 60.08856 0.30414 35397 ft 309 kts 113°
2026-04-27 13:18 60.06623 0.37769 35396 ft 309 kts 113°
2026-04-27 13:18 60.04382 0.45123 35399 ft 310 kts 113°
2026-04-27 13:19 60.02134 0.52476 35394 ft 310 kts 114°
2026-04-27 13:19 59.99897 0.59772 35406 ft 310 kts 114°
2026-04-27 13:20 59.97643 0.67102 35425 ft 310 kts 114°
2026-04-27 13:20 59.95381 0.74424 35407 ft 310 kts 115°
2026-04-27 13:21 59.93125 0.81721 35406 ft 309 kts 115°
2026-04-27 13:21 59.90866 0.88997 35406 ft 308 kts 115°
2026-04-27 13:22 59.88605 0.96255 35406 ft 308 kts 115°
2026-04-27 13:22 59.86355 1.03454 35409 ft 308 kts 115°
2026-04-27 13:23 59.84090 1.10682 35413 ft 308 kts 115°
2026-04-27 13:23 59.81821 1.17898 35406 ft 308 kts 115°
2026-04-27 13:24 59.79550 1.25100 35408 ft 307 kts 115°
2026-04-27 13:24 59.77276 1.32288 35431 ft 307 kts 116°
2026-04-27 13:25 59.75011 1.39413 35418 ft 307 kts 116°
2026-04-27 13:25 59.72738 1.46566 35415 ft 307 kts 116°
2026-04-27 13:26 59.70461 1.53698 35414 ft 306 kts 116°
2026-04-27 13:26 59.68183 1.60811 35417 ft 306 kts 116°
2026-04-27 13:27 59.65917 1.67864 35417 ft 306 kts 116°
2026-04-27 13:27 59.63637 1.74940 35417 ft 305 kts 116°
2026-04-27 13:28 59.61358 1.81993 35416 ft 304 kts 116°
2026-04-27 13:28 59.59080 1.89020 35419 ft 303 kts 116°
2026-04-27 13:29 59.56800 1.96033 35434 ft 304 kts 117°
2026-04-27 13:29 59.54510 2.03049 35421 ft 304 kts 118°
2026-04-27 13:30 59.52234 2.10015 35414 ft 304 kts 118°
2026-04-27 13:30 59.49939 2.17008 35414 ft 304 kts 118°
2026-04-27 13:31 59.47645 2.23982 35411 ft 304 kts 118°
2026-04-27 13:31 59.45346 2.30948 35411 ft 304 kts 118°
2026-04-27 13:32 59.43044 2.37902 35409 ft 303 kts 118°
2026-04-27 13:32 59.40740 2.44842 35408 ft 303 kts 118°
2026-04-27 13:33 59.38448 2.51726 35408 ft 303 kts 118°
2026-04-27 13:33 59.36135 2.58654 35426 ft 303 kts 119°
2026-04-27 13:34 59.33818 2.65564 35409 ft 303 kts 119°
2026-04-27 13:34 59.31503 2.72462 35407 ft 303 kts 119°
2026-04-27 13:35 59.29185 2.79343 35405 ft 303 kts 119°
2026-04-27 13:35 59.26879 2.86169 35418 ft 303 kts 120°
2026-04-27 13:36 59.24552 2.93037 35415 ft 303 kts 120°
2026-04-27 13:36 59.22220 2.99895 35414 ft 303 kts 120°
2026-04-27 13:37 59.19884 3.06749 35413 ft 303 kts 120°
2026-04-27 13:37 59.17562 3.13542 35417 ft 303 kts 120°
2026-04-27 13:38 59.15219 3.20377 35428 ft 303 kts 120°
2026-04-27 13:38 59.12871 3.27199 35419 ft 303 kts 121°
2026-04-27 13:39 59.10525 3.34010 35413 ft 303 kts 121°
2026-04-27 13:39 59.08190 3.40761 35408 ft 303 kts 121°
2026-04-27 13:40 59.05838 3.47542 35412 ft 302 kts 121°
2026-04-27 13:40 59.03485 3.54308 35412 ft 302 kts 121°
2026-04-27 13:41 59.01128 3.61065 35412 ft 302 kts 121°
2026-04-27 13:41 58.98784 3.67766 35411 ft 302 kts 121°
2026-04-27 13:42 58.96420 3.74510 35411 ft 303 kts 121°
2026-04-27 13:42 58.94046 3.81253 35417 ft 303 kts 122°
2026-04-27 13:43 58.91667 3.87992 35411 ft 303 kts 122°
2026-04-27 13:43 58.89302 3.94682 35409 ft 303 kts 122°
2026-04-27 13:44 58.86920 4.01394 35411 ft 303 kts 122°
2026-04-27 13:44 58.84531 4.08109 35409 ft 303 kts 122°
2026-04-27 13:45 58.82140 4.14811 35409 ft 303 kts 122°
2026-04-27 13:45 58.79761 4.21457 35409 ft 303 kts 122°
2026-04-27 13:46 58.77363 4.28142 35412 ft 303 kts 122°
2026-04-27 13:46 58.74961 4.34816 35406 ft 303 kts 122°
2026-04-27 13:47 58.72556 4.41480 35409 ft 303 kts 123°
2026-04-27 13:47 58.70163 4.48088 35407 ft 303 kts 123°
2026-04-27 13:48 58.67752 4.54738 35406 ft 303 kts 123°
2026-04-27 13:48 58.65337 4.61371 35406 ft 303 kts 123°
2026-04-27 13:49 58.62920 4.67994 35403 ft 303 kts 123°
2026-04-27 13:49 58.60518 4.74560 35400 ft 303 kts 123°
2026-04-27 13:50 58.58099 4.81151 35400 ft 302 kts 123°
2026-04-27 13:50 58.55677 4.87731 35401 ft 302 kts 123°
2026-04-27 13:51 58.53252 4.94305 35398 ft 302 kts 123°
2026-04-27 13:51 58.50839 5.00826 35400 ft 302 kts 123°
2026-04-27 13:52 58.48407 5.07376 35398 ft 302 kts 124°
2026-04-27 13:52 58.45973 5.13922 35398 ft 302 kts 124°
2026-04-27 13:53 58.42315 5.23719 35395 ft 302 kts 124°
2026-04-27 13:54 58.39888 5.30198 35396 ft 302 kts 124°
2026-04-27 13:54 58.37448 5.36692 35397 ft 302 kts 124°
2026-04-27 13:55 58.35001 5.43194 35399 ft 302 kts 124°
2026-04-27 13:55 58.32545 5.49691 35396 ft 303 kts 124°
2026-04-27 13:56 58.30081 5.56197 35391 ft 304 kts 124°
2026-04-27 13:56 58.27623 5.62668 35392 ft 304 kts 124°
2026-04-27 13:57 58.25149 5.69166 35392 ft 304 kts 124°
2026-04-27 13:57 58.22667 5.75665 35390 ft 304 kts 124°
2026-04-27 13:58 58.20183 5.82152 35390 ft 304 kts 124°
2026-04-27 13:58 58.17711 5.88592 35390 ft 304 kts 125°
2026-04-27 13:59 58.15219 5.95066 35390 ft 304 kts 125°
2026-04-27 13:59 58.12719 6.01541 35390 ft 305 kts 125°
2026-04-27 14:00 58.10214 6.08011 35390 ft 305 kts 125°
2026-04-27 14:00 58.07727 6.14421 35387 ft 305 kts 125°
2026-04-27 14:01 58.05215 6.20876 35389 ft 305 kts 125°
2026-04-27 14:01 58.02691 6.27344 35388 ft 307 kts 126°
2026-04-27 14:02 58.00152 6.33834 35387 ft 308 kts 126°
2026-04-27 14:02 57.97614 6.40299 35387 ft 310 kts 126°
2026-04-27 14:03 57.95048 6.46819 35385 ft 310 kts 126°
2026-04-27 14:03 57.92480 6.53330 35387 ft 310 kts 126°
2026-04-27 14:04 57.89909 6.59833 35386 ft 310 kts 126°
2026-04-27 14:04 57.87343 6.66303 35385 ft 311 kts 126°
2026-04-27 14:05 57.84757 6.72809 35379 ft 311 kts 127°
2026-04-27 14:05 57.82165 6.79301 35381 ft 311 kts 126°
2026-04-27 14:06 57.79564 6.85806 35380 ft 312 kts 127°
2026-04-27 14:06 57.76952 6.92319 35381 ft 313 kts 127°
2026-04-27 14:07 57.74354 6.98782 35383 ft 313 kts 127°
2026-04-27 14:07 57.71739 7.05284 35376 ft 313 kts 128°
2026-04-27 14:08 57.69101 7.11786 35376 ft 314 kts 128°
2026-04-27 14:08 57.66469 7.18278 35376 ft 313 kts 128°
2026-04-27 14:09 57.63858 7.24715 35374 ft 313 kts 128°
2026-04-27 14:09 57.61221 7.31184 35378 ft 314 kts 128°
2026-04-27 14:10 57.58572 7.37664 35372 ft 314 kts 128°
2026-04-27 14:10 57.55926 7.44117 35373 ft 313 kts 128°
2026-04-27 14:11 57.53278 7.50558 35373 ft 313 kts 129°
2026-04-27 14:11 57.50640 7.56965 35371 ft 314 kts 128°
2026-04-27 14:12 57.47982 7.63403 35373 ft 314 kts 129°
2026-04-27 14:12 57.45317 7.69838 35368 ft 314 kts 128°
2026-04-27 14:13 57.42645 7.76271 35366 ft 315 kts 129°
2026-04-27 14:13 57.39983 7.82663 35365 ft 315 kts 129°
2026-04-27 14:14 57.37298 7.89086 35368 ft 315 kts 129°
2026-04-27 14:14 57.34611 7.95508 35362 ft 315 kts 129°
2026-04-27 14:15 57.31920 8.01922 35362 ft 315 kts 129°
2026-04-27 14:15 57.29229 8.08317 35363 ft 315 kts 129°
2026-04-27 14:16 57.26556 8.14649 35363 ft 314 kts 129°
2026-04-27 14:16 57.23862 8.21012 35363 ft 314 kts 129°
2026-04-27 14:17 57.21162 8.27375 35358 ft 315 kts 129°
2026-04-27 14:17 57.18457 8.33733 35353 ft 315 kts 129°
2026-04-27 14:18 57.15746 8.40096 35356 ft 316 kts 129°
2026-04-27 14:18 57.13043 8.46415 35355 ft 317 kts 129°
2026-04-27 14:19 57.10313 8.52780 35354 ft 317 kts 129°
2026-04-27 14:19 57.07584 8.59131 35339 ft 316 kts 130°
2026-04-27 14:20 57.04853 8.65462 35342 ft 316 kts 130°
2026-04-27 14:20 57.02142 8.71734 35344 ft 316 kts 130°
2026-04-27 14:21 56.99409 8.78041 35334 ft 316 kts 130°
2026-04-27 14:21 56.96674 8.84336 35338 ft 316 kts 130°
2026-04-27 14:22 56.93948 8.90595 35339 ft 317 kts 130°
2026-04-27 14:22 56.91192 8.96903 35330 ft 318 kts 130°
2026-04-27 14:23 56.88427 9.03217 35331 ft 318 kts 130°
2026-04-27 14:23 56.85654 9.09532 35331 ft 319 kts 130°
2026-04-27 14:24 56.82877 9.15842 35331 ft 319 kts 130°
2026-04-27 14:24 56.80111 9.22108 35324 ft 319 kts 130°
2026-04-27 14:25 56.77320 9.28416 35324 ft 319 kts 130°
2026-04-27 14:25 56.74526 9.34713 35322 ft 319 kts 130°
2026-04-27 14:26 56.71727 9.41003 35326 ft 320 kts 130°
2026-04-27 14:26 56.68935 9.47263 35323 ft 321 kts 130°
2026-04-27 14:27 56.66115 9.53570 35323 ft 322 kts 130°
2026-04-27 14:27 56.63287 9.59875 35321 ft 322 kts 130°
2026-04-27 14:28 56.60455 9.66175 35325 ft 322 kts 130°
2026-04-27 14:28 56.57619 9.72468 35321 ft 322 kts 130°
2026-04-27 14:29 56.54796 9.78714 35329 ft 322 kts 131°
2026-04-27 14:29 56.51952 9.84990 35328 ft 322 kts 131°
2026-04-27 14:30 56.49100 9.91269 35326 ft 323 kts 131°
2026-04-27 14:30 56.46235 9.97559 35336 ft 324 kts 131°
2026-04-27 14:31 56.43381 10.03809 35321 ft 325 kts 131°
2026-04-27 14:31 56.40497 10.10106 35328 ft 326 kts 131°
2026-04-27 14:32 56.37603 10.16413 35335 ft 326 kts 131°
2026-04-27 14:32 56.34704 10.22711 35336 ft 326 kts 131°
2026-04-27 14:33 56.31825 10.28950 35335 ft 326 kts 131°
2026-04-27 14:33 56.28926 10.35214 35343 ft 325 kts 131°
2026-04-27 14:34 56.26023 10.41472 35347 ft 326 kts 131°
2026-04-27 14:34 56.23116 10.47724 35336 ft 326 kts 131°
2026-04-27 14:35 56.20201 10.53975 35336 ft 327 kts 131°
2026-04-27 14:35 56.17298 10.60184 35335 ft 327 kts 131°
2026-04-27 14:36 56.14377 10.66417 35335 ft 326 kts 131°
2026-04-27 14:36 56.12900 10.69561 35037 ft 335 kts 131°
2026-04-27 14:36 56.11392 10.72766 34560 ft 337 kts 131°
2026-04-27 14:36 56.09890 10.75962 34025 ft 334 kts 132°
2026-04-27 14:37 56.08399 10.79119 33465 ft 331 kts 132°
2026-04-27 14:37 56.06918 10.82255 32923 ft 329 kts 132°
2026-04-27 14:37 56.05465 10.85331 32396 ft 327 kts 133°
2026-04-27 14:37 56.04002 10.88421 31876 ft 325 kts 133°
2026-04-27 14:38 56.02544 10.91496 31366 ft 322 kts 133°
2026-04-27 14:38 56.01103 10.94535 30861 ft 319 kts 133°
2026-04-27 14:38 55.99677 10.97534 30359 ft 316 kts 133°
2026-04-27 14:38 55.98261 11.00511 29778 ft 313 kts 133°
2026-04-27 14:39 55.96857 11.03458 29216 ft 310 kts 133°
2026-04-27 14:39 55.95463 11.06381 28647 ft 308 kts 133°
2026-04-27 14:39 55.94079 11.09280 28100 ft 306 kts 133°
2026-04-27 14:39 55.92720 11.12122 27570 ft 304 kts 133°
2026-04-27 14:40 55.91349 11.14986 27042 ft 303 kts 133°
2026-04-27 14:40 55.89981 11.17842 26524 ft 304 kts 133°
2026-04-27 14:40 55.88606 11.20706 26016 ft 305 kts 133°
2026-04-27 14:40 55.87222 11.23590 25522 ft 306 kts 132°
2026-04-27 14:41 55.85835 11.26473 25023 ft 307 kts 132°
2026-04-27 14:41 55.84448 11.29353 24540 ft 306 kts 132°
2026-04-27 14:41 55.83061 11.32231 24061 ft 306 kts 132°
2026-04-27 14:41 55.81693 11.35062 23550 ft 306 kts 132°
2026-04-27 14:42 55.80311 11.37927 22994 ft 305 kts 131°
2026-04-27 14:42 55.78930 11.40781 22446 ft 304 kts 131°
2026-04-27 14:42 55.77646 11.43746 21914 ft 302 kts 118°
2026-04-27 14:42 55.76939 11.47223 21378 ft 298 kts 101°
2026-04-27 14:43 55.76584 11.50834 20863 ft 296 kts 96°
2026-04-27 14:43 55.76243 11.54429 20353 ft 295 kts 101°
2026-04-27 14:43 55.75793 11.57967 19854 ft 292 kts 100°
2026-04-27 14:43 55.75416 11.61446 19367 ft 283 kts 99°
2026-04-27 14:44 55.75042 11.64697 18879 ft 269 kts 100°
2026-04-27 14:44 55.74659 11.67961 18378 ft 270 kts 99°
2026-04-27 14:44 55.74289 11.71208 17831 ft 267 kts 99°
2026-04-27 14:44 55.73917 11.74414 17298 ft 264 kts 99°
2026-04-27 14:45 55.73816 11.77602 16698 ft 257 kts 75°
2026-04-27 14:45 55.74496 11.80471 16097 ft 252 kts 60°
2026-04-27 14:45 55.75291 11.83226 15527 ft 249 kts 59°
2026-04-27 14:45 55.76115 11.85918 14925 ft 248 kts 57°
2026-04-27 14:46 55.76968 11.88518 14453 ft 244 kts 56°
2026-04-27 14:46 55.77839 11.91080 13895 ft 242 kts 54°
2026-04-27 14:46 55.78722 11.93590 13373 ft 237 kts 54°
2026-04-27 14:46 55.79611 11.96019 12823 ft 234 kts 52°
2026-04-27 14:47 55.80543 11.98375 12257 ft 232 kts 50°
2026-04-27 14:47 55.81218 12.00952 11712 ft 236 kts 78°
2026-04-27 14:47 55.80954 12.03864 11074 ft 246 kts 111°
2026-04-27 14:47 55.80081 12.06520 10392 ft 251 kts 120°
2026-04-27 14:48 55.79147 12.09150 9727 ft 251 kts 119°
2026-04-27 14:48 55.77122 12.13911 8552 ft 247 kts 145°
2026-04-27 14:48 55.75575 12.14943 7779 ft 227 kts 171°
2026-04-27 14:49 55.73954 12.15169 7061 ft 237 kts 178°
2026-04-27 14:49 55.72298 12.15251 6450 ft 238 kts 180°
2026-04-27 14:49 55.70636 12.15281 5760 ft 240 kts 180°
2026-04-27 14:49 55.68963 12.15309 5056 ft 240 kts 176°
2026-04-27 14:50 55.67326 12.15718 4372 ft 236 kts 167°
2026-04-27 14:50 55.65755 12.16527 3675 ft 234 kts 161°
2026-04-27 14:50 55.64221 12.17398 3131 ft 227 kts 161°
2026-04-27 14:50 55.62755 12.18241 2633 ft 221 kts 160°
2026-04-27 14:51 55.61334 12.19041 2328 ft 208 kts 161°
2026-04-27 14:51 55.59970 12.19408 2119 ft 194 kts 187°
2026-04-27 14:51 55.58770 12.18517 1929 ft 181 kts 213°
2026-04-27 14:51 55.58078 12.17797 1939 ft 169 kts 212°
2026-04-27 14:52 55.56769 12.16467 1859 ft 161 kts 211°
2026-04-27 14:52 55.55830 12.15544 1639 ft 142 kts 211°
2026-04-27 14:52 55.55165 12.14469 1448 ft 130 kts 248°
2026-04-27 14:52 55.54992 12.12951 1140 ft 124 kts 277°
2026-04-27 14:53 55.55285 12.11668 947 ft 111 kts 316°
2026-04-27 14:53 55.55943 12.11009 642 ft 111 kts 351°
2026-04-27 14:53 55.56687 12.11223 413 ft 108 kts 21°
2026-04-27 14:53 55.57345 12.11868 271 ft 108 kts 25°
2026-04-27 14:54 55.57987 12.12542 151 ft 107 kts 25°
2026-04-27 14:54 55.58552 12.13136 144 ft 76 kts 31°
2026-04-27 14:54 55.58796 12.13391 148 ft 23 kts 28°
2026-04-27 14:54 55.58884 12.13487 148 ft 11 kts 33°
2026-04-27 14:55 55.58981 12.13586 146 ft 10 kts
2026-04-27 14:55 55.59043 12.13520 147 ft 15 kts 326°
2026-04-27 14:55 55.59117 12.13431 149 ft 3 kts 324°
2026-04-27 14:55 55.59125 12.13420 149 ft 5 kts 318°
2026-04-27 14:56 55.59128 12.13350 150 ft 7 kts 223°
2026-04-27 14:56 55.59055 12.13285 147 ft 12 kts 206°
2026-04-27 14:56 55.58972 12.13212 146 ft 14 kts 207°
2026-04-27 14:56 55.58892 12.13128 144 ft 9 kts 246°
2026-04-27 14:57 55.58927 12.13008 145 ft 11 kts 297°
2026-04-27 14:57 55.58959 12.12898 145 ft 8 kts 296°
2026-04-27 14:57 55.58968 12.12865 145 ft 4 kts 296°
2026-04-27 14:57 55.58986 12.12818 146 ft 4 kts 348°
2026-04-27 14:58 55.59007 12.12829 147 ft 3 kts 27°
2026-04-27 14:58 55.59015 12.12836 147 ft 0 kts 27°